Torna al catalogo

STARLINK-35685

AttivoComunicazioniVLEO
NORAD 67128·PAYLOAD·🇺🇸 United States

Lanciato Dec 15, 2025 da Cape Canaveral Space Force Station

Loading…

Prossimi Passaggi (prossime 24 ore)

TLE

AggiornatoSource: CelesTrak SupGP

Epoca: Sep 14, 2026, 21:00 UTC

1 67128C 25299AC  26257.87548611 -.00012392  00000+0 -44872-3 0  2576
2 67128  42.9993 180.3064 0001370 263.0604  66.7689 15.27593439    17

Traccia STARLINK-35685 in tempo reale con AllMySat

Download on the App Store